User: anonymous   Login
Location: Boissi�res
(45.2500°N, 2.3667°E)
Time: 21:45:45
(UTC+00:00)
Language:

Gbstr 26 Del rocket - Orbit

View from above orbital plane
View from above orbital plane
View from above satellite
View from above satellite

Ground track
Ground track

The orbit data is extracted from the following two-line orbital elements,

1 25876U 99041E   21129.41709272 -.00000147  00000-0  14574-4 0  9996
2 25876  51.7655 103.4123 0530674 214.8087 141.7036 14.04568663114436
Epoch (UTC): 09 May 2021 10:00:36
Eccentricity: 0.0530674
inclination: 51.7655°
perigee height: 493 km
apogee height: 1263 km
right ascension of ascending node: 103.4123°
argument of perigee: 214.8087°
revolutions per day: 14.04568663
mean anomaly at epoch: 141.7036°
orbit number at epoch: 11443

The dashed part of the orbit path shows where the satellite is in the earth's shadow,  

DLR